Weather History for Fallon NAS, NV

Change the Weather History Date:

Friday, April 25, 2014

  Actual Average Record
Temperature  
Mean Temperature 47 °F -  
Max Temperature 57 °F 63 °F 86 °F (1946)
Min Temperature 39 °F 34 °F 25 °F (1929)
Degree Days  
Heating Degree Days 18    
Moisture  
Dew Point 34 °F    
Average Humidity 63    
Maximum Humidity 93    
Minimum Humidity 32    
Precipitation  
Precipitation 0.25 in - - ()
Sea Level Pressure  
Sea Level Pressure 29.68 in    
Wind  
Wind Speed 9 mph (NW)    
Max Wind Speed 15 mph    
Max Gust Speed -    
Visibility 9 miles    
Events Rain    
Averages and records for this station are not official NWS values.
T = Trace of Precipitation, MM = Missing Value Source: NWS Daily Summary

Daily Weather History Graph

Daily Weather History Graph

Search for Another Location

Airport:

Trip Planner

Search our weather history database for the weather conditions in past years. The results will help you decide how hot, cold, wet, or windy it might be!

Date:

Astronomy

Apr. 25, 2014 Rise Set
Actual Time 6:03 AM PDT 7:42 PM PDT
Civil Twilight 5:35 AM PDT 8:11 PM PDT
Nautical Twilight 5:00 AM PDT 8:45 PM PDT
Astronomical Twilight 4:24 AM PDT 9:22 PM PDT
Moon 3:53 AM PDT (4/25) 4:11 PM PDT (4/25)
Length of Visible Light 14h 36m
Length of Day
13h 39m
Waning Crescent, 14% of the Moon is Illuminated
Apr 25
Waning Crescent
Apr 28
New
May 6
First Quarter
May 14
Full
May 21
Last Quarter

Hourly Weather History & Observations

Time (PDT) Temp. Windchill Dew Point Humidity Pressure Visibility Wind Dir Wind Speed Gust Speed Precip Events Conditions
12:56 AM 55.9 °F - 26.1 °F 32% 29.76 in 10.0 mi SW 15.0 mph - N/A   Overcast
1:56 AM 55.9 °F - 27.0 °F 33% 29.75 in 10.0 mi WSW 11.5 mph - N/A   Overcast
2:56 AM 54.0 °F - 26.1 °F 34% 29.73 in 10.0 mi West 4.6 mph - N/A   Overcast
3:56 AM 53.1 °F - 26.1 °F 35% 29.72 in 10.0 mi WNW 8.1 mph - N/A   Overcast
4:56 AM 52.0 °F - 27.0 °F 38% 29.69 in 10.0 mi SW 3.5 mph - N/A   Mostly Cloudy
5:56 AM 51.1 °F - 27.0 °F 39% 29.68 in 10.0 mi NW 6.9 mph - N/A   Overcast
6:16 AM 52.0 °F - 28.0 °F 40% 29.73 in 10.0 mi West 5.8 mph - N/A   Overcast
6:56 AM 52.0 °F - 28.9 °F 41% 29.68 in 10.0 mi Variable 3.5 mph - N/A   Overcast
7:56 AM 52.0 °F - 30.0 °F 43% 29.68 in 10.0 mi WNW 13.8 mph - N/A   Overcast
8:56 AM 50.0 °F - 35.1 °F 57% 29.70 in 10.0 mi North 9.2 mph - 0.00 in Rain Light Rain
9:06 AM 50.0 °F - 35.1 °F 57% 29.76 in 10.0 mi NNE 10.4 mph - 0.00 in   Overcast
9:56 AM 51.1 °F - 33.1 °F 50% 29.69 in 10.0 mi North 13.8 mph - 0.00 in   Overcast
10:56 AM 51.1 °F - 32.0 °F 48% 29.68 in 10.0 mi NNW 12.7 mph - 0.00 in Rain Light Rain
11:56 AM 48.0 °F - 37.0 °F 66% 29.69 in 10.0 mi NNW 10.4 mph - 0.00 in Rain Light Rain
12:56 PM 44.1 °F 37.7 °F 37.9 °F 79% 29.70 in 9.0 mi NW 12.7 mph - 0.02 in Rain Light Rain
1:56 PM 45.0 °F 40.1 °F 39.0 °F 80% 29.68 in 9.0 mi North 9.2 mph - 0.03 in Rain Light Rain
2:56 PM 44.1 °F - 37.0 °F 76% 29.66 in 9.0 mi Calm Calm - 0.01 in Rain Light Rain
3:56 PM 46.0 °F 44.8 °F 36.0 °F 68% 29.65 in 10.0 mi NNW 3.5 mph - 0.01 in   Overcast
4:56 PM 42.1 °F 38.4 °F 37.9 °F 85% 29.66 in 7.0 mi WNW 5.8 mph - 0.06 in Rain Light Rain
5:56 PM 44.1 °F 39.5 °F 39.0 °F 82% 29.64 in 10.0 mi North 8.1 mph - 0.04 in   Mostly Cloudy
6:56 PM 44.1 °F 39.5 °F 37.9 °F 79% 29.63 in 10.0 mi North 8.1 mph - N/A   Mostly Cloudy
7:56 PM 43.0 °F 40.3 °F 37.9 °F 82% 29.63 in 10.0 mi NNE 4.6 mph - N/A   Mostly Cloudy
8:56 PM 42.1 °F - 37.9 °F 85% 29.62 in 10.0 mi Calm Calm - N/A   Mostly Cloudy
9:56 PM 42.1 °F - 37.9 °F 85% 29.64 in 10.0 mi Calm Calm - N/A   Overcast
10:49 PM 39.9 °F 33.4 °F 37.0 °F 89% 29.70 in 4.0 mi WNW 10.4 mph - 0.03 in Rain Rain
10:56 PM 39.9 °F 33.9 °F 37.0 °F 89% 29.64 in 4.0 mi West 9.2 mph - 0.04 in Rain Rain
11:28 PM 39.9 °F 34.5 °F 37.0 °F 89% 29.69 in 10.0 mi West 8.1 mph - 0.04 in Rain Light Rain
11:56 PM 39.9 °F 35.1 °F 37.9 °F 93% 29.64 in 10.0 mi WSW 6.9 mph - 0.04 in Rain Light Rain